| time (UTC) | temp F | wind direction | speed MPH | gust MPH | rain 1hr in | rain 24hr in | rain mn in | humidity % | barometer mb |
| 20260503190430 | 81 | 26 | 3.0 | 4.0 | 0.00 | 0.00 | 0.00 | 40 | 1009.1 |
| 20260503185927 | 81 | 89 | 2.0 | 3.0 | 0.00 | 0.00 | 0.00 | 41 | 1009.3 |
| 20260503185424 | 81 | 154 | 3.0 | 3.0 | 0.00 | 0.00 | 0.00 | 40 | 1009.3 |
| 20260503184923 | 80 | 55 | 1.0 | 1.0 | 0.00 | 0.00 | 0.00 | 42 | 1009.3 |
| 20260503184420 | 80 | 83 | 1.0 | 2.0 | 0.00 | 0.00 | 0.00 | 43 | 1009.4 |
| 20260503183916 | 79 | 34 | 1.0 | 3.0 | 0.00 | 0.00 | 0.00 | 43 | 1009.5 |
| 20260503183412 | 80 | 349 | 3.0 | 3.0 | 0.00 | 0.00 | 0.00 | 44 | 1009.4 |
| 20260503182910 | 79 | 90 | 1.0 | 1.0 | 0.00 | 0.00 | 0.00 | 45 | 1009.4 |
| 20260503182409 | 79 | 40 | 4.0 | 4.0 | 0.00 | 0.00 | 0.00 | 44 | 1009.4 |
| 20260503181905 | 79 | 9 | 3.0 | 4.0 | 0.00 | 0.00 | 0.00 | 45 | 1009.6 |
| 20260503181402 | 78 | 49 | 0.0 | 0.0 | 0.00 | 0.00 | 0.00 | 45 | 1009.5 |
| 20260503180859 | 78 | 119 | 1.0 | 2.0 | 0.00 | 0.00 | 0.00 | 45 | 1009.6 |
| 20260503180357 | 77 | 66 | 2.0 | 3.0 | 0.00 | 0.00 | 0.00 | 46 | 1009.7 |
| 20260503175853 | 77 | 77 | 2.0 | 4.0 | 0.00 | 0.00 | 0.00 | 47 | 1009.7 |
| 20260503175351 | 77 | 121 | 1.0 | 1.0 | 0.00 | 0.00 | 0.00 | 48 | 1009.7 |
| 20260503174847 | 76 | 57 | 2.0 | 3.0 | 0.00 | 0.00 | 0.00 | 50 | 1009.7 |
| 20260503174345 | 76 | 47 | 1.0 | 1.0 | 0.00 | 0.00 | 0.00 | 50 | 1009.8 |
| 20260503173845 | 76 | 52 | 4.0 | 4.0 | 0.00 | 0.00 | 0.00 | 49 | 1009.9 |
| 20260503173342 | 77 | 65 | 4.0 | 9.0 | 0.00 | 0.00 | 0.00 | 48 | 1009.9 |
| 20260503172838 | 76 | 94 | 0.0 | 0.0 | 0.00 | 0.00 | 0.00 | 46 | 1009.9 |
| 20260503172336 | 77 | 105 | 0.0 | 0.0 | 0.00 | 0.00 | 0.00 | 52 | 1009.9 |
| 20260503171832 | 75 | 69 | 0.0 | 0.0 | 0.00 | 0.00 | 0.00 | 57 | 1009.9 |
| 20260503171329 | 75 | 42 | 1.0 | 1.0 | 0.00 | 0.00 | 0.00 | 56 | 1009.9 |
| 20260503170826 | 75 | 254 | 1.0 | 2.0 | 0.00 | 0.00 | 0.00 | 58 | 1009.8 |
| 20260503170322 | 73 | 32 | 0.0 | 0.0 | 0.00 | 0.00 | 0.00 | 64 | 1009.9 |
| 20260503150715 | 58 | 92 | 0.0 | 0.0 | 0.00 | 0.00 | 0.00 | 86 | 1010.6 |
| 20260503150211 | 57 | 98 | 1.0 | 1.0 | 0.00 | 0.00 | 0.00 | 89 | 1010.7 |
| 20260503140136 | 53 | 76 | 0.0 | 0.0 | 0.00 | 0.00 | 0.00 | 96 | 1010.4 |
| 20260503131105 | 50 | 76 | 0.0 | 0.0 | 0.00 | 0.00 | 0.00 | 99 | 1010.1 |
| 20260503130602 | 50 | 87 | 0.0 | 0.0 | 0.00 | 0.00 | 0.00 | 99 | 1010.1 |
| 20260503110453 | 51 | 45 | 0.0 | 0.0 | 0.00 | 0.00 | 0.00 | 98 | 1010.3 |
| 20260503090344 | 54 | 26 | 0.0 | 0.0 | 0.00 | 0.00 | 0.00 | 95 | 1010.9 |
| 20260503081311 | 55 | 39 | 0.0 | 0.0 | 0.00 | 0.00 | 0.00 | 94 | 1011.3 |
| 20260503080808 | 55 | 60 | 0.0 | 0.0 | 0.00 | 0.00 | 0.00 | 93 | 1011.1 |
| 20260503080305 | 55 | 66 | 0.0 | 0.0 | 0.00 | 0.00 | 0.00 | 93 | 1011.1 |
| 20260503072741 | 57 | 21 | 0.0 | 0.0 | 0.00 | 0.00 | 0.00 | 91 | 1011.3 |
| 20260503072238 | 57 | 93 | 0.0 | 0.0 | 0.00 | 0.00 | 0.00 | 91 | 1011.4 |
| 20260503071734 | 57 | 84 | 0.0 | 1.0 | 0.00 | 0.00 | 0.00 | 91 | 1011.2 |
| 20260503071231 | 57 | 46 | 0.0 | 0.0 | 0.00 | 0.00 | 0.00 | 91 | 1011.2 |
| 20260503070728 | 57 | 136 | 1.0 | 2.0 | 0.00 | 0.00 | 0.00 | 90 | 1011.3 |
| 20260503070226 | 57 | 96 | 2.0 | 2.0 | 0.00 | 0.00 | 0.00 | 91 | 1011.2 |
| 20260503060151 | 58 | 51 | 0.0 | 0.0 | 0.00 | 0.00 | 0.00 | 87 | 1011.1 |
| 20260503054638 | 59 | 56 | 0.0 | 0.0 | 0.00 | 0.00 | 0.00 | 85 | 1011.2 |
| 20260503054135 | 59 | 0 | 0.0 | 1.0 | 0.00 | 0.00 | 0.00 | 85 | 1011.2 |
| 20260503053633 | 60 | 280 | 2.0 | 2.0 | 0.00 | 0.00 | 0.00 | 85 | 1011.4 |
| 20260503053132 | 60 | 55 | 0.0 | 0.0 | 0.00 | 0.00 | 0.00 | 84 | 1011.4 |
| 20260503052627 | 60 | 56 | 0.0 | 0.0 | 0.00 | 0.00 | 0.00 | 84 | 1011.2 |
| 20260503052124 | 60 | 49 | 0.0 | 0.0 | 0.00 | 0.00 | 0.00 | 83 | 1011.4 |
| 20260503051619 | 61 | 121 | 0.0 | 1.0 | 0.00 | 0.00 | 0.00 | 81 | 1011.3 |
| 20260503051118 | 62 | 120 | 3.0 | 3.0 | 0.00 | 0.00 | 0.00 | 79 | 1011.3 |
| 20260503050614 | 62 | 81 | 0.0 | 0.0 | 0.00 | 0.00 | 0.00 | 78 | 1011.4 |
| 20260503050110 | 62 | 70 | 0.0 | 0.0 | 0.00 | 0.00 | 0.00 | 78 | 1011.0 |
| 20260503045608 | 62 | 103 | 0.0 | 1.0 | 0.00 | 0.00 | 0.00 | 78 | 1011.1 |
| 20260503045105 | 62 | 139 | 1.0 | 1.0 | 0.00 | 0.00 | 0.00 | 78 | 1011.0 |
| 20260503044601 | 62 | 63 | 0.0 | 0.0 | 0.00 | 0.00 | 0.00 | 78 | 1010.8 |
| 20260503044059 | 62 | 41 | 1.0 | 1.0 | 0.00 | 0.00 | 0.00 | 78 | 1010.6 |
| 20260503043555 | 62 | 347 | 0.0 | 1.0 | 0.00 | 0.00 | 0.00 | 77 | 1010.8 |
| 20260503043052 | 63 | 84 | 0.0 | 0.0 | 0.00 | 0.00 | 0.00 | 77 | 1010.8 |
| 20260503042549 | 63 | 60 | 0.0 | 0.0 | 0.00 | 0.00 | 0.00 | 77 | 1010.8 |
| 20260503042045 | 63 | 317 | 1.0 | 3.0 | 0.00 | 0.00 | 0.00 | 77 | 1010.8 |
| 20260503041543 | 63 | 11 | 0.0 | 1.0 | 0.00 | 0.00 | 0.00 | 76 | 1010.7 |
| 20260503041040 | 63 | 23 | 1.0 | 1.0 | 0.00 | 0.00 | 0.00 | 76 | 1010.6 |
| 20260503040537 | 63 | 56 | 0.0 | 1.0 | 0.00 | 0.00 | 0.00 | 76 | 1010.7 |
| 20260503040034 | 63 | 12 | 3.0 | 4.0 | 0.00 | 0.00 | 0.00 | 76 | 1010.7 |
| 20260503035531 | 63 | 35 | 2.0 | 2.0 | 0.00 | 0.00 | 0.00 | 76 | 1010.8 |
| 20260503035029 | 63 | 352 | 1.0 | 2.0 | 0.00 | 0.00 | 0.00 | 76 | 1010.8 |
| 20260503034525 | 64 | 339 | 2.0 | 2.0 | 0.00 | 0.00 | 0.00 | 75 | 1010.6 |
| 20260503034022 | 64 | 48 | 0.0 | 0.0 | 0.00 | 0.00 | 0.00 | 75 | 1010.5 |
| 20260503033520 | 64 | 0 | 0.0 | 1.0 | 0.00 | 0.00 | 0.00 | 74 | 1010.6 |
| 20260503033018 | 64 | 33 | 1.0 | 1.0 | 0.00 | 0.00 | 0.00 | 74 | 1010.6 |
| 20260503032516 | 64 | 4 | 2.0 | 3.0 | 0.00 | 0.00 | 0.00 | 73 | 1010.5 |
| 20260503032014 | 64 | 28 | 2.0 | 2.0 | 0.00 | 0.00 | 0.00 | 73 | 1010.3 |
| 20260503031511 | 64 | 22 | 1.0 | 1.0 | 0.00 | 0.00 | 0.00 | 73 | 1010.3 |
| 20260503031008 | 65 | 44 | 1.0 | 2.0 | 0.00 | 0.00 | 0.00 | 73 | 1010.6 |
| 20260503030504 | 65 | 60 | 0.0 | 0.0 | 0.00 | 0.00 | 0.00 | 73 | 1010.4 |
| 20260503030001 | 65 | 304 | 3.0 | 3.0 | 0.00 | 0.00 | 0.00 | 73 | 1010.5 |
| 20260503025458 | 65 | 38 | 3.0 | 4.0 | 0.00 | 0.00 | 0.00 | 72 | 1010.5 |
| 20260503024956 | 65 | 350 | 3.0 | 4.0 | 0.00 | 0.00 | 0.00 | 72 | 1010.6 |
| 20260503024451 | 65 | 29 | 2.0 | 2.0 | 0.00 | 0.00 | 0.00 | 72 | 1010.6 |
| 20260503023949 | 65 | 353 | 1.0 | 1.0 | 0.00 | 0.00 | 0.00 | 72 | 1010.7 |
| 20260503023446 | 65 | 351 | 2.0 | 3.0 | 0.00 | 0.00 | 0.00 | 72 | 1010.7 |
| 20260503022943 | 66 | 308 | 1.0 | 2.0 | 0.00 | 0.00 | 0.00 | 72 | 1011.2 |
| 20260503022437 | 66 | 69 | 0.0 | 0.0 | 0.00 | 0.00 | 0.00 | 72 | 1011.1 |
| 20260503021934 | 66 | 55 | 0.0 | 0.0 | 0.00 | 0.00 | 0.00 | 71 | 1011.3 |
| 20260503021430 | 66 | 108 | 0.0 | 0.0 | 0.00 | 0.00 | 0.00 | 71 | 1011.5 |
| 20260503020928 | 66 | 149 | 1.0 | 1.0 | 0.00 | 0.00 | 0.00 | 71 | 1011.8 |
| 20260503020425 | 66 | 210 | 5.0 | 7.0 | 0.00 | 0.00 | 0.00 | 70 | 1011.7 |
| 20260503015922 | 66 | 205 | 5.0 | 8.0 | 0.00 | 0.00 | 0.00 | 71 | 1011.6 |
| 20260503015419 | 66 | 169 | 7.0 | 10.0 | 0.00 | 0.00 | 0.00 | 71 | 1011.6 |
| 20260503014914 | 66 | 193 | 4.0 | 6.0 | 0.00 | 0.00 | 0.00 | 71 | 1011.4 |
| 20260503014412 | 66 | 106 | 2.0 | 3.0 | 0.00 | 0.00 | 0.00 | 71 | 1011.2 |
| 20260503013910 | 67 | 203 | 2.0 | 2.0 | 0.00 | 0.00 | 0.00 | 70 | 1010.7 |
| 20260503013406 | 68 | 248 | 1.0 | 3.0 | 0.00 | 0.00 | 0.00 | 68 | 1010.8 |
| 20260503012903 | 68 | 261 | 3.0 | 4.0 | 0.00 | 0.00 | 0.00 | 67 | 1010.7 |
| 20260503012401 | 68 | 161 | 1.0 | 1.0 | 0.00 | 0.00 | 0.00 | 68 | 1010.7 |
| 20260503011857 | 69 | 129 | 2.0 | 2.0 | 0.00 | 0.00 | 0.00 | 65 | 1010.6 |
| 20260503011355 | 67 | 169 | 1.0 | 2.0 | 0.00 | 0.00 | 0.00 | 67 | 1010.7 |
| 20260503010851 | 68 | 91 | 0.0 | 1.0 | 0.00 | 0.00 | 0.00 | 66 | 1010.6 |
| 20260503010348 | 68 | 225 | 1.0 | 2.0 | 0.00 | 0.00 | 0.00 | 66 | 1010.5 |
| 20260503005845 | 69 | 169 | 4.0 | 4.0 | 0.00 | 0.00 | 0.00 | 66 | 1010.6 |
| 20260503005343 | 69 | 188 | 4.0 | 6.0 | 0.00 | 0.00 | 0.00 | 65 | 1010.5 |
| 20260503004838 | 68 | 229 | 1.0 | 2.0 | 0.00 | 0.00 | 0.00 | 67 | 1010.4 |
| 20260503004336 | 69 | 162 | 3.0 | 4.0 | 0.00 | 0.00 | 0.00 | 65 | 1010.4 |
| 20260503003833 | 68 | 194 | 2.0 | 3.0 | 0.00 | 0.00 | 0.00 | 66 | 1010.2 |
| 20260503003330 | 68 | 356 | 0.0 | 1.0 | 0.00 | 0.00 | 0.00 | 67 | 1010.2 |
| 20260503002827 | 68 | 255 | 1.0 | 2.0 | 0.00 | 0.00 | 0.00 | 67 | 1010.1 |
| 20260503002324 | 68 | 154 | 2.0 | 2.0 | 0.00 | 0.00 | 0.00 | 66 | 1010.2 |
| 20260503001821 | 68 | 159 | 2.0 | 2.0 | 0.00 | 0.00 | 0.00 | 67 | 1010.1 |
| 20260503001317 | 68 | 127 | 1.0 | 2.0 | 0.00 | 0.00 | 0.00 | 67 | 1010.2 |
| 20260503000815 | 69 | 68 | 0.0 | 1.0 | 0.00 | 0.00 | 0.00 | 65 | 1010.5 |
| 20260503000312 | 68 | 0 | 0.0 | 1.0 | 0.00 | 0.00 | 0.00 | 66 | 1010.3 |
| 20260502235809 | 67 | 50 | 1.0 | 1.0 | 0.00 | 0.00 | 0.00 | 67 | 1010.4 |
| 20260502235306 | 68 | 166 | 1.0 | 1.0 | 0.00 | 0.00 | 0.00 | 65 | 1010.4 |
| 20260502234803 | 68 | 55 | 0.0 | 0.0 | 0.00 | 0.00 | 0.00 | 66 | 1010.3 |
| 20260502234300 | 68 | 242 | 2.0 | 2.0 | 0.00 | 0.00 | 0.00 | 65 | 1010.4 |
| 20260502233755 | 69 | 220 | 1.0 | 1.0 | 0.00 | 0.00 | 0.00 | 65 | 1010.5 |
| 20260502233253 | 69 | 252 | 2.0 | 3.0 | 0.00 | 0.00 | 0.00 | 64 | 1010.6 |
| 20260502232749 | 68 | 116 | 2.0 | 2.0 | 0.00 | 0.00 | 0.00 | 64 | 1010.8 |
| 20260502232246 | 69 | 117 | 0.0 | 0.0 | 0.00 | 0.00 | 0.00 | 62 | 1010.8 |
| 20260502231742 | 69 | 306 | 1.0 | 2.0 | 0.00 | 0.00 | 0.00 | 62 | 1011.0 |
| 20260502231240 | 69 | 133 | 2.0 | 3.0 | 0.00 | 0.00 | 0.00 | 61 | 1011.0 |
| 20260502230739 | 70 | 268 | 3.0 | 3.0 | 0.00 | 0.00 | 0.00 | 60 | 1010.9 |
| 20260502230237 | 70 | 183 | 1.0 | 2.0 | 0.00 | 0.00 | 0.00 | 62 | 1011.2 |
| 20260502225732 | 69 | 154 | 2.0 | 3.0 | 0.00 | 0.00 | 0.00 | 62 | 1011.2 |
| 20260502225230 | 70 | 172 | 2.0 | 3.0 | 0.00 | 0.00 | 0.00 | 60 | 1011.2 |
| 20260502224726 | 68 | 257 | 1.0 | 2.0 | 0.00 | 0.00 | 0.00 | 62 | 1011.3 |
| 20260502224223 | 69 | 244 | 2.0 | 3.0 | 0.00 | 0.00 | 0.00 | 61 | 1011.2 |
| 20260502223720 | 68 | 114 | 1.0 | 2.0 | 0.00 | 0.00 | 0.00 | 63 | 1011.4 |
| 20260502223218 | 68 | 174 | 1.0 | 2.0 | 0.00 | 0.00 | 0.00 | 61 | 1011.4 |
| 20260502222715 | 68 | 85 | 1.0 | 3.0 | 0.00 | 0.00 | 0.00 | 65 | 1011.6 |
| 20260502222212 | 70 | 176 | 5.0 | 7.0 | 0.00 | 0.00 | 0.00 | 61 | 1011.7 |
| 20260502221708 | 69 | 188 | 2.0 | 2.0 | 0.00 | 0.00 | 0.00 | 61 | 1011.6 |
| 20260502221205 | 72 | 181 | 2.0 | 2.0 | 0.00 | 0.00 | 0.00 | 59 | 1011.6 |
| 20260502220701 | 70 | 127 | 0.0 | 1.0 | 0.00 | 0.00 | 0.00 | 59 | 1011.8 |
| 20260502220157 | 68 | 297 | 1.0 | 2.0 | 0.00 | 0.00 | 0.00 | 63 | 1011.8 |
| 20260502215654 | 70 | 201 | 1.0 | 2.0 | 0.00 | 0.00 | 0.00 | 60 | 1012.0 |
| 20260502215151 | 68 | 178 | 3.0 | 6.0 | 0.00 | 0.00 | 0.00 | 62 | 1011.9 |
| 20260502214649 | 67 | 165 | 3.0 | 4.0 | 0.00 | 0.00 | 0.00 | 63 | 1012.1 |
| 20260502214146 | 66 | 87 | 4.0 | 4.0 | 0.00 | 0.00 | 0.00 | 65 | 1012.5 |
| 20260502213643 | 68 | 134 | 2.0 | 2.0 | 0.00 | 0.00 | 0.00 | 64 | 1012.3 |
| 20260502213140 | 67 | 128 | 1.0 | 1.0 | 0.00 | 0.00 | 0.00 | 61 | 1012.3 |
| 20260502212639 | 66 | 68 | 0.0 | 1.0 | 0.00 | 0.00 | 0.00 | 65 | 1012.5 |
| 20260502212137 | 64 | 122 | 0.0 | 1.0 | 0.00 | 0.00 | 0.00 | 66 | 1012.3 |
| 20260502211632 | 64 | 85 | 1.0 | 1.0 | 0.00 | 0.00 | 0.00 | 66 | 1012.3 |
| 20260502211129 | 65 | 66 | 2.0 | 3.0 | 0.00 | 0.00 | 0.00 | 66 | 1012.7 |
| 20260502210627 | 64 | 14 | 0.0 | 1.0 | 0.00 | 0.00 | 0.00 | 66 | 1012.5 |
| 20260502210124 | 65 | 89 | 2.0 | 3.0 | 0.00 | 0.00 | 0.00 | 65 | 1012.9 |
| 20260502205620 | 65 | 292 | 0.0 | 1.0 | 0.00 | 0.00 | 0.00 | 65 | 1012.6 |
| 20260502205117 | 63 | 35 | 0.0 | 0.0 | 0.00 | 0.00 | 0.00 | 67 | 1012.9 |
| 20260502204614 | 63 | 103 | 0.0 | 1.0 | 0.00 | 0.00 | 0.00 | 68 | 1012.9 |
| 20260502204112 | 65 | 23 | 2.0 | 3.0 | 0.00 | 0.00 | 0.00 | 66 | 1012.9 |
| 20260502203609 | 63 | 97 | 2.0 | 3.0 | 0.00 | 0.00 | 0.00 | 67 | 1013.0 |
| 20260502203106 | 63 | 84 | 0.0 | 1.0 | 0.00 | 0.00 | 0.00 | 67 | 1013.1 |
| 20260502202601 | 62 | 22 | 3.0 | 3.0 | 0.00 | 0.00 | 0.00 | 69 | 1013.2 |
| 20260502202100 | 64 | 33 | 3.0 | 4.0 | 0.00 | 0.00 | 0.00 | 65 | 1013.4 |
| 20260502201555 | 65 | 300 | 2.0 | 3.0 | 0.00 | 0.00 | 0.00 | 64 | 1013.6 |
| 20260502201052 | 66 | 50 | 2.0 | 3.0 | 0.00 | 0.00 | 0.00 | 65 | 1013.4 |
| 20260502200548 | 63 | 211 | 2.0 | 4.0 | 0.00 | 0.00 | 0.00 | 67 | 1013.5 |
| 20260502200046 | 64 | 49 | 0.0 | 0.0 | 0.00 | 0.00 | 0.00 | 66 | 1013.8 |
| 20260502195543 | 64 | 319 | 1.0 | 1.0 | 0.00 | 0.00 | 0.00 | 64 | 1013.7 |
| 20260502195039 | 62 | 106 | 0.0 | 0.0 | 0.00 | 0.00 | 0.00 | 67 | 1013.8 |
| 20260502194536 | 62 | 65 | 2.0 | 3.0 | 0.00 | 0.00 | 0.00 | 70 | 1013.8 |
| 20260502194032 | 62 | 75 | 2.0 | 3.0 | 0.00 | 0.00 | 0.00 | 70 | 1013.8 |
| 20260502193530 | 61 | 85 | 0.0 | 1.0 | 0.00 | 0.00 | 0.00 | 72 | 1013.8 |
| 20260502193026 | 59 | 19 | 1.0 | 2.0 | 0.00 | 0.00 | 0.00 | 73 | 1014.1 |
| 20260502192522 | 58 | 37 | 3.0 | 3.0 | 0.00 | 0.00 | 0.00 | 76 | 1014.3 |
| 20260502192020 | 59 | 58 | 0.0 | 1.0 | 0.00 | 0.00 | 0.00 | 76 | 1014.2 |
| 20260502191516 | 58 | 84 | 0.0 | 1.0 | 0.00 | 0.00 | 0.00 | 75 | 1014.2 |
| 20260502191015 | 57 | 84 | 3.0 | 7.0 | 0.00 | 0.00 | 0.00 | 76 | 1014.4 |